[[{"header":{"parameterUnit":"m.s-1","parameterCategory":1,"la1":30.2991,"la2":30.254,"lo1":-89.0895,"lo2":-89.0444,"dy":0.0017,"dx":0.0017,"nx":28,"ny":28,"refTime":"2024-08-13T09:00:00:Z","depth":0,"parameterNumber":2,"parameterNumberName":"U-component_of_WINDS"},"data":[0,0,0,0,0,0,0,0,0,0,0,0,0,0,0,0,0,0,0,0,0,0,0,0,0,0,0,0,0,0,0,0,0,0,0,0,0,0,0,0,0,0,0,0,0,0,0,0,0,0,0,0,0,0,0,0,0,0,3.5277,3.5277,0,3.5315,3.5316,3.5316,3.5187,3.5183,3.518,3.5176,3.5215,3.5219,3.5224,0,0,0,0,0,0,0,0,0,0,0,0,0,3.509,3.5094,3.5277,3.5277,3.5278,3.5315,3.5316,3.5316,3.5188,3.5183,3.5179,3.5174,3.5213,3.5219,3.5224,0,0,0,0,0,0,0,0,0,0,0,0,0,3.5155,3.5096,3.5277,3.5218,3.5213,3.5315,3.5316,3.5317,3.5189,3.5183,3.5177,3.5172,3.5211,3.5218,3.5225,3.5385,0,0,3.5246,3.5249,0,0,0,0,0,0,0,0,3.5151,3.5161,3.5226,3.5222,3.5217,3.5241,3.5264,3.5339,3.519,3.5198,3.5176,3.5169,3.5228,3.5233,3.5253,3.5387,3.5388,3.5247,3.5251,3.5254,3.5256,0,0,0,0,0,0,0,3.5147,3.5159,3.5292,3.5227,3.5222,3.519,3.5192,3.5278,3.5245,3.5197,3.5188,3.5194,3.5224,3.5247,3.5253,3.5389,3.5247,3.5253,3.5257,3.526,3.5654,3.566,0,0,0,0,0,0,3.515,3.5156,3.5291,3.5293,3.5169,3.5198,3.5201,3.5239,3.5244,3.5239,3.5199,3.5188,3.5238,3.5245,3.5254,3.544,3.5254,3.5261,3.5265,3.5648,3.5656,3.5663,0,0,0,0,0,0,3.5147,3.5163,3.5289,3.5222,3.5236,3.5207,3.5251,3.5243,3.5265,3.5246,3.5239,3.5228,3.5233,3.5244,3.5353,3.544,3.5264,3.527,3.5641,3.5651,3.5659,3.5815,0,0,0,0,0,0,3.5142,3.5163,3.5223,3.5225,3.524,3.5388,3.5257,3.5248,3.5278,3.5263,3.5271,3.5267,3.523,3.5343,3.536,3.5446,3.5276,3.5633,3.5645,3.5656,3.5802,3.5829,3.5852,0,0,0,0,0,3.5136,3.5266,3.5227,3.5244,3.5315,3.5394,3.5402,3.5357,3.5285,3.5345,3.5333,3.5266,3.5428,3.5356,3.5373,3.5463,3.5627,3.5642,3.5655,3.5791,3.5824,3.5851,0,0,0,0,0,0,3.5275,3.5265,3.5222,3.5356,3.5377,3.5372,3.5446,3.5393,3.5434,3.5419,3.5361,3.5364,3.5483,3.5484,3.5403,3.5618,3.5515,3.5534,3.5612,3.5643,3.5668,3.5664,3.5281,0,0,0,0,0,3.5322,3.5387,3.5374,3.5494,3.5507,3.5476,3.5508,3.5471,3.549,3.5498,3.5493,3.5514,3.5569,3.5606,3.5656,3.5803,3.5802,3.5873,3.5898,3.5918,3.5934,3.6011,3.6042,3.5709,3.5709,3.5709,0,0,3.5418,3.5421,3.5465,3.5522,3.5534,3.5602,3.5483,3.556,3.561,3.5509,3.5611,3.5609,3.5628,3.5757,3.5813,3.5761,3.6026,3.5936,3.5953,3.5957,3.6028,3.606,3.6088,3.5719,3.5717,3.5715,0,0,3.5628,3.5638,3.5738,3.5752,3.5771,3.575,3.5774,3.5778,3.5772,3.5874,3.58,3.5858,3.5955,3.5971,3.5992,3.621,3.6149,3.6228,3.6356,3.6432,3.6458,3.6481,3.6557,3.6585,3.6244,3.6244,3.6245,0,3.5746,3.5845,3.5796,3.5878,3.5905,3.5818,3.5919,3.5935,3.597,3.599,3.5932,3.6051,3.6058,3.6188,3.6242,3.6262,3.6287,3.6225,3.6458,3.648,3.6501,3.6573,3.6602,3.6254,3.6253,3.6252,3.6251,0,3.5988,3.6059,3.6137,3.6173,3.6209,3.6301,3.6265,3.6307,3.6268,3.6253,3.6358,3.6363,3.6412,3.644,3.6403,3.6566,3.6533,3.6468,3.6363,3.6543,3.6609,3.6637,3.6267,3.6264,3.6261,3.6259,0,0,3.6285,3.6294,3.6323,3.6338,3.6354,3.6407,3.6494,3.6543,3.6579,3.6607,3.6678,3.6762,3.6702,3.6726,3.669,3.6756,3.6927,3.6682,3.6682,3.6726,3.7105,3.7153,3.7186,3.6888,3.6893,3.6897,3.7103,0,3.6491,3.664,3.6599,3.6748,3.6812,3.6731,3.6807,3.6825,3.6813,3.6865,3.6852,3.6912,3.6829,3.6843,3.6905,3.6893,3.7002,3.6878,3.6952,3.6956,3.6948,3.722,3.7271,3.7465,3.7129,3.7133,3.7136,0,3.675,3.6787,3.6943,3.6948,3.6973,3.7042,3.7083,3.7134,3.7153,3.7139,3.7167,3.7118,3.7203,3.71,3.7217,3.7133,3.7162,3.7161,3.7167,3.717,3.7055,3.723,3.7526,3.7554,3.7177,3.7174,3.7171,0,3.6949,3.7039,3.7143,3.7159,3.7167,3.7218,3.7224,3.7236,3.7268,3.7304,3.7323,3.7369,3.7394,3.743,3.7395,3.7323,3.7516,3.741,3.7507,3.7508,3.7549,3.7547,3.7852,3.7571,3.7571,3.757,3.757,0,3.7181,3.7279,3.7233,3.7297,3.7404,3.7356,3.7464,3.746,3.7473,3.7534,3.7468,3.7527,3.7477,3.7532,3.7505,3.7605,3.7617,3.7608,3.7599,3.7613,3.7614,3.7629,3.7614,3.7578,3.7576,3.7575,3.7574,0,3.7421,3.7394,3.7502,3.7502,3.7504,3.7583,3.7582,3.7641,3.7626,3.7705,3.772,3.7695,3.7757,3.7725,3.7788,3.777,3.7899,3.7873,3.7893,3.7885,3.7983,3.7973,3.8307,3.8347,3.8043,3.8046,3.8048,0,3.757,3.7643,3.7651,3.7688,3.7698,3.7759,3.7791,3.7747,3.7783,3.781,3.7866,3.7921,3.7963,3.8064,3.8052,3.81,3.8073,3.8187,3.808,3.8091,3.8073,3.8068,3.8075,3.8208,3.8211,3.8214,3.8216,0,3.7836,3.782,3.7868,3.7914,3.7954,3.7988,3.8015,3.8049,3.8006,3.805,3.8112,3.8144,3.8209,3.8265,3.8307,3.8312,3.8257,3.8251,3.8275,3.8289,3.8297,3.8292,3.7949,3.8243,3.824,3.8238,3.8237,3.8236,3.8033,3.8095,3.811,3.8167,3.8183,3.8211,3.8266,3.8258,3.8309,3.8358,3.833,3.8402,3.8418,3.8469,3.8482,3.8537,3.8492,3.8528,3.8537,3.8546,3.8558,3.829,3.8545,3.8544,3.8544,3.8543,3.8542,0,3.8295,3.8301,3.8354,3.8395,3.844,3.8386,3.8414,3.8455,3.852,3.854,3.8583,3.8654,3.8708,3.87,3.8749,3.8795,3.8771,3.8809,3.8804,3.8806,3.8597,3.857,3.8828,3.8828,3.8828,3.8828,3.8828,3.8828,3.8436,3.8537,3.8522,3.863,3.8635,3.8706,3.8727,3.8752,3.8767,3.885,3.8895,3.889,3.8899,3.8948,3.8995,3.8991,3.9011,3.9059,3.9046,3.885,3.8821,3.8794,3.8768,3.9064,3.9064,3.925,3.9252,3.9253]},{"header":{"parameterUnit":"m.s-1","parameterCategory":1,"la1":30.2991,"la2":30.254,"lo1":-89.0895,"lo2":-89.0444,"dy":0.0017,"dx":0.0017,"nx":28,"ny":28,"refTime":"2024-08-13T09:00:00:Z","depth":0,"parameterNumber":3,"parameterNumberName":"V-component_of_WINDS"},"data":[0,0,0,0,0,0,0,0,0,0,0,0,0,0,0,0,0,0,0,0,0,0,0,0,0,0,0,0,0,0,0,0,0,0,0,0,0,0,0,0,0,0,0,0,0,0,0,0,0,0,0,0,0,0,0,0,0,0,1.4002,1.4001,0,1.3898,1.3897,1.3896,1.3814,1.3813,1.3813,1.3812,1.3704,1.3702,1.37,0,0,0,0,0,0,0,0,0,0,0,0,0,1.4128,1.4126,1.4002,1.4001,1.4,1.3898,1.3897,1.3895,1.3814,1.3813,1.3812,1.3811,1.3705,1.3702,1.37,0,0,0,0,0,0,0,0,0,0,0,0,0,1.4054,1.4125,1.4003,1.3947,1.3941,1.3899,1.3897,1.3895,1.3814,1.3813,1.3812,1.3811,1.3706,1.3702,1.3699,1.3703,0,0,1.369,1.3688,0,0,0,0,0,0,0,0,1.4058,1.4049,1.3956,1.3951,1.3944,1.3868,1.3902,1.3831,1.3815,1.3862,1.3812,1.381,1.3759,1.3752,1.3735,1.3698,1.3694,1.3689,1.3687,1.3686,1.3685,0,0,0,0,0,0,0,1.4063,1.4053,1.3961,1.3955,1.3947,1.3926,1.3914,1.3888,1.3819,1.3858,1.3852,1.3841,1.3756,1.3738,1.3732,1.3692,1.3689,1.3687,1.3685,1.3683,1.3651,1.3652,0,0,0,0,0,0,1.4077,1.4058,1.3964,1.3958,1.3999,1.3925,1.3912,1.3893,1.3819,1.3806,1.3842,1.3837,1.3744,1.3736,1.3728,1.3726,1.3686,1.3683,1.3681,1.365,1.3652,1.3653,0,0,0,0,0,0,1.408,1.407,1.3968,1.4006,1.3992,1.3924,1.3904,1.3892,1.3874,1.3807,1.3794,1.3837,1.3743,1.3732,1.371,1.3721,1.3682,1.3679,1.3649,1.3651,1.3652,1.3724,0,0,0,0,0,0,1.4084,1.4071,1.4073,1.4007,1.399,1.3953,1.3905,1.3891,1.3869,1.3862,1.3798,1.3787,1.3741,1.3715,1.3706,1.3716,1.3676,1.3648,1.365,1.3652,1.372,1.3728,1.3734,0,0,0,0,0,1.4089,1.4097,1.4073,1.4063,1.3991,1.3954,1.3944,1.3892,1.3871,1.3871,1.3827,1.3789,1.3721,1.3713,1.3703,1.3712,1.3647,1.3649,1.3652,1.3717,1.3726,1.3734,0,0,0,0,0,0,1.4167,1.4088,1.406,1.4048,1.4008,1.3941,1.394,1.3904,1.387,1.3864,1.3801,1.3787,1.3771,1.3739,1.3731,1.3711,1.3679,1.3679,1.3732,1.374,1.3747,1.3755,1.3674,0,0,0,0,0,1.4182,1.416,1.4092,1.4087,1.4069,1.4008,1.399,1.3953,1.3909,1.3892,1.3847,1.3806,1.3774,1.3756,1.3724,1.3715,1.3699,1.3716,1.3723,1.3729,1.373,1.3721,1.3727,1.3661,1.3661,1.3661,0,0,1.4215,1.4169,1.4158,1.4102,1.4067,1.4044,1.3994,1.3973,1.3955,1.3889,1.3864,1.383,1.3779,1.3763,1.3754,1.3736,1.3745,1.3732,1.3737,1.3735,1.3724,1.373,1.3736,1.3662,1.3662,1.3662,0,0,1.4261,1.4225,1.4216,1.4182,1.413,1.4089,1.4087,1.4024,1.3998,1.3973,1.3922,1.3899,1.3848,1.3814,1.3789,1.3821,1.3784,1.3813,1.3849,1.3841,1.3846,1.385,1.386,1.3865,1.3814,1.3814,1.3814,0,1.4308,1.4272,1.4216,1.4197,1.4173,1.4112,1.4102,1.4071,1.4011,1.3995,1.3976,1.3909,1.3871,1.3845,1.3853,1.3836,1.383,1.3819,1.385,1.3854,1.3857,1.3865,1.387,1.3818,1.3817,1.3817,1.3817,0,1.4331,1.4306,1.4306,1.4249,1.4224,1.421,1.4151,1.4133,1.4098,1.4059,1.4033,1.3984,1.3941,1.3932,1.3898,1.3901,1.3891,1.3862,1.3829,1.3868,1.3875,1.3878,1.3823,1.3822,1.3821,1.382,0,0,1.4424,1.4335,1.4336,1.4309,1.4246,1.4225,1.4207,1.4165,1.415,1.411,1.4092,1.405,1.4022,1.3994,1.3955,1.3949,1.3975,1.392,1.3917,1.393,1.3973,1.3994,1.3999,1.395,1.395,1.395,1.3977,0,1.446,1.4424,1.4373,1.4355,1.433,1.4271,1.4255,1.4214,1.4177,1.415,1.4108,1.4079,1.4045,1.4028,1.4018,1.3974,1.3982,1.3971,1.3931,1.3931,1.3945,1.4003,1.4026,1.4053,1.3979,1.398,1.398,0,1.4497,1.446,1.4439,1.4376,1.4364,1.4351,1.4306,1.4282,1.4234,1.4207,1.4176,1.4133,1.4109,1.408,1.4046,1.4039,1.402,1.3995,1.3995,1.3989,1.3957,1.3997,1.4061,1.4065,1.3984,1.3984,1.3983,0,1.4565,1.451,1.449,1.4469,1.4395,1.4387,1.4356,1.4306,1.4283,1.4244,1.4228,1.4188,1.4165,1.4134,1.4081,1.4064,1.4052,1.4018,1.4027,1.4029,1.4027,1.4028,1.4087,1.4017,1.4017,1.4017,1.4016,0,1.461,1.4599,1.4519,1.4507,1.4492,1.4433,1.442,1.4383,1.4339,1.4318,1.4265,1.4245,1.4177,1.4149,1.4108,1.4085,1.4075,1.4052,1.4041,1.4056,1.4059,1.4042,1.4038,1.4017,1.4017,1.4017,1.4017,0,1.4684,1.463,1.4604,1.4536,1.4519,1.4511,1.4452,1.4437,1.4396,1.437,1.436,1.4295,1.426,1.4204,1.4152,1.4124,1.4108,1.409,1.4124,1.4117,1.4129,1.4129,1.4179,1.4182,1.4111,1.4112,1.4113,0,1.4715,1.4705,1.4636,1.4618,1.4589,1.4561,1.4536,1.4477,1.4454,1.4397,1.4389,1.4349,1.4314,1.426,1.4208,1.4167,1.4147,1.4168,1.4141,1.4156,1.4146,1.4147,1.4145,1.4174,1.4175,1.4176,1.4177,0,1.4777,1.475,1.4718,1.4676,1.4649,1.4613,1.4575,1.4563,1.4494,1.4471,1.4434,1.4407,1.4353,1.4314,1.4266,1.4233,1.4193,1.4186,1.4185,1.4201,1.422,1.4208,1.414,1.4185,1.4184,1.4183,1.4183,1.4183,1.4829,1.4817,1.4766,1.4731,1.4696,1.4661,1.4643,1.4599,1.4567,1.4519,1.4486,1.4451,1.44,1.4332,1.4301,1.4271,1.4254,1.4254,1.4254,1.4255,1.426,1.4226,1.4263,1.4262,1.4262,1.4262,1.4261,0,1.4886,1.485,1.4819,1.4767,1.4739,1.4704,1.4659,1.4638,1.4608,1.4565,1.4531,1.4488,1.4449,1.4394,1.435,1.4337,1.4318,1.4328,1.4328,1.432,1.4278,1.4282,1.4344,1.4344,1.4344,1.4344,1.4344,1.4344,1.4913,1.489,1.4857,1.4815,1.4779,1.4744,1.4721,1.4688,1.4653,1.4607,1.4575,1.4539,1.449,1.4442,1.4405,1.4389,1.4375,1.4391,1.437,1.4331,1.4324,1.4316,1.432,1.4389,1.4389,1.4414,1.4414,1.4414]}]]